リニア彗星

228P/LINEAR (2020)

English version
Home page
Updated on May 4, 2021

---------------------------------------------------------------------

・ プロフィール

・ 写真集

・ 軌道要素

Epoch 2020 Mar. 12.0 TT = JDT 2458920.5                                         
T 2020 Mar. 10.69775 TT                                 Rudenko                 
q   3.4358410            (2000.0)            P               Q                  
n   0.11555911     Peri.  115.30230     -0.82743964     -0.55706709             
a   4.1744564      Node    30.98881     +0.45292686     -0.73663120             
e   0.1769369      Incl.    7.90955     +0.33196521     -0.38347195             
P   8.53                                                                        
From 302 observations 2001 Dec. 9-2020 May 24, mean residual 0".6.              

・ 光度変化

        m1 = 11.5 + 5 logΔ + 10.0 log r

---------------------------------------------------------------------

軌道要素はM.P.E.C. 2020-L06に掲載されたものです。
光度グラフはComet for Windowsで作成したものです。

---------------------------------------------------------------------

Copyright(C) Seiichi Yoshida (comet@aerith.net). All rights reserved.